Regional Weather Roundup
Issued by NWS

Home | Current Version | Previous Version | Graphics & Text | Print | Product List | Glossary On
Versions: 1 2 3 4 5 6 7 8 9 10 11 12 13 14 15 16 17 18 19 20 21 22 23 24 25 26 27 28 29 30 31 32 33 34 35 36 37 38 39 40 41 42 43 44 45 46 47 48 49 50
000
ASUS43 KLMK 260002
RWRKY
KENTUCKY REGIONAL WEATHER ROUNDUP
NATIONAL WEATHER SERVICE LOUISVILLE KY
800 PM EDT TUE APR 25 2017

NOTE "FAIR" INDICATES FEW OR NO CLOUDS BELOW 12,000 FEET
WITH NO SIGNIFICANT WEATHER AND/OR OBSTRUCTIONS TO VISIBILITY.

KYZ001>023-026-027-061>063-070>075-260100-
WESTERN AND SOUTH CENTRAL KENTUCKY

CITY           SKY/WX    TMP DP  RH WIND       PRES   REMARKS
PADUCAH        CLEAR     76  52  43 S9        29.58S
HENDERSON      PTCLDY    74  57  55 SE10      29.62S
OWENSBORO      PTCLDY    73  58  59 S12       29.64S
HOPKINSVILLE   CLEAR     76  56  50 SE9       29.64F
BOWLING GREEN  CLEAR     73  56  54 S9        29.68F
GLASGOW        NOT AVBL
$$

KYZ024-025-028>034-038-045-046-053-260100-
NORTH CENTRAL KENTUCKY

CITY           SKY/WX    TMP DP  RH WIND       PRES   REMARKS
LOUISVILLE/SDF MOCLDY    74  56  53 S12       29.66F
LOUISVILLE/LOU PTCLDY    74  57  55 SE6       29.67F
FORT KNOX      PTCLDY    71  56  59 S7        29.66F
$$

KYZ035>037-039>044-047>052-055>060-089>105-260100-
NORTHEAST KENTUCKY

CITY           SKY/WX    TMP DP  RH WIND       PRES   REMARKS
LEXINGTON      CLEAR     69  55  60 S5        29.71S
COVINGTON      PTCLDY    70  58  65 S8        29.68F
FRANKFORT      CLEAR     71  55  56 SE7       29.69S
$$

KYZ054-064>069-076>088-106>120-260100-
SOUTHEAST KENTUCKY

CITY           SKY/WX    TMP DP  RH WIND       PRES   REMARKS
JACKSON        CLEAR     68  55  63 CALM      29.73F
LONDON         CLEAR     71  53  52 SW3       29.73S
SOMERSET       CLEAR     68  52  56 CALM      29.74S
MIDDLESBORO    CLOUDY    68  58  68 S3        29.75S
MONTICELLO     CLEAR     70  56  61 W10       29.74S
$$





USA.gov is the U.S. government's official web portal to all federal, state and local government web resources and services.